Sydney, Australia

1:46 PM AEDT on February 26, 2017 (GMT +1100)
Sydney

Weather History for 94767 - July, 2013

Change the Weather History Date:

Sunday, July 28, 2013

  Actual Average Record
Temperature  
Mean Temperature 57 °F -  
Max Temperature 68 °F 65 °F - ()
Min Temperature 46 °F 46 °F - ()
Degree Days  
Heating Degree Days 8    
Growing Degree Days 7 (Base 50)    
Moisture  
Dew Point 46 °F    
Average Humidity 65    
Maximum Humidity 88    
Minimum Humidity 37    
Precipitation  
Precipitation 0.00 in 0.11 in - ()
Sea Level Pressure  
Sea Level Pressure 30.33 in    
Wind  
Wind Speed 7 mph ()    
Max Wind Speed 17 mph    
Max Gust Speed -    
Visibility 14.0 miles    
Events      
T = Trace of Precipitation, MM = Missing Value Source: Averaged Metar Reports

Daily Weather History Graph

Daily Weather History Graph

Search for Another Location

Airport or City:

Trip Planner

Search our weather history database for the weather conditions in past years. The results will help you decide how hot, cold, wet, or windy it might be!

Date:

Astronomy

Jul. 28, 2013 Rise Set
Actual Time 6:51 AM AEST 5:12 PM AEST
Civil Twilight 6:24 AM AEST 5:39 PM AEST
Nautical Twilight 5:54 AM AEST 6:09 PM AEST
Astronomical Twilight 5:24 AM AEST 6:39 PM AEST
Moon 11:16 PM AEST (7/28) 9:59 AM AEST (7/28)
Length of Visible Light 11h 14m
Length of Day
10h 21m
Waning Gibbous, 67% of the Moon is Illuminated
Jul 28
Waning Gibbous
Jul 30
Last Quarter
Aug 7
New
Aug 14
First Quarter
Aug 21
Full

Hourly Weather History & Observations

Time (AEST) Temp. Windchill Dew Point Humidity Pressure Visibility Wind Dir Wind Speed Gust Speed Precip Events Conditions
12:00 AM 53 °F - 48 °F 78% 30.40 in 12 mi NW 6.9 mph - -   Partly Cloudy
12:00 AM 53.6 °F - 48.2 °F 82% 30.39 in - NW 6.9 mph - N/A   Clear
12:30 AM 51.8 °F - 48.2 °F 88% 30.39 in - NW 5.8 mph - N/A   Clear
1:00 AM 51 °F - 47 °F 81% 30.41 in - NNW 4.6 mph - -  
1:00 AM 51.8 °F - 46.4 °F 82% 30.39 in - NNW 4.6 mph - N/A   Clear
1:30 AM 50.0 °F - 46.4 °F 87% 30.39 in - NNE 4.6 mph - N/A   Clear
2:00 AM 51.8 °F - 46.4 °F 82% 30.39 in - North 4.6 mph - N/A   Clear
2:30 AM 50.0 °F - 46.4 °F 87% 30.36 in - North 6.9 mph - N/A   Clear
3:00 AM 49 °F - 45 °F 83% 30.39 in 9 mi NW 8.1 mph - -   Partly Cloudy
3:00 AM 50.0 °F - 44.6 °F 82% 30.36 in - NW 8.1 mph - N/A   Clear
3:30 AM 48.2 °F - 44.6 °F 87% 30.36 in - NNW 5.8 mph - N/A   Clear
4:00 AM 49 °F - 44 °F 77% 30.38 in - NNW 8.1 mph - -  
4:00 AM 48.2 °F - 44.6 °F 87% 30.36 in - NNW 8.1 mph - N/A   Clear
4:30 AM 48.2 °F - 44.6 °F 87% 30.36 in - NW 6.9 mph - N/A   Clear
5:00 AM 48.2 °F - 44.6 °F 87% 30.36 in - North 8.1 mph - N/A   Clear
5:30 AM 46.4 °F 42.4 °F 42.8 °F 87% 30.36 in - NNW 8.1 mph - N/A   Clear
6:00 AM 47 °F - 43 °F 82% 30.39 in 7 mi NNW 6.9 mph - -   Haze
6:00 AM 46.4 °F 42.9 °F 42.8 °F 87% 30.36 in - NNW 6.9 mph - N/A   Clear
6:30 AM 46.4 °F 42.9 °F 42.8 °F 87% 30.39 in - NNW 6.9 mph - N/A   Clear
7:00 AM 48 °F - 42 °F 75% 30.41 in - NNW 9.2 mph - -  
7:00 AM 48.2 °F - 42.8 °F 82% 30.39 in - NNW 9.2 mph - N/A   Clear
7:30 AM 50.0 °F - 42.8 °F 76% 30.39 in - NNW 8.1 mph - N/A   Clear
8:00 AM 50.0 °F - 42.8 °F 76% 30.39 in - NNW 6.9 mph - N/A   Clear
8:30 AM 53.6 °F - 44.6 °F 72% 30.39 in - NNW 8.1 mph - N/A   Clear
9:00 AM 53 °F - 44 °F 63% 30.41 in 11 mi NNW 5.8 mph - -   Haze
9:00 AM 53.6 °F - 44.6 °F 72% 30.39 in - NNW 5.8 mph - N/A   Clear
9:30 AM 57.2 °F - 44.6 °F 63% 30.39 in - NNW 6.9 mph - N/A   Clear
10:00 AM 60 °F - 45 °F 48% 30.42 in - NNW 6.9 mph - -  
10:00 AM 59.0 °F - 44.6 °F 59% 30.39 in - NNW 6.9 mph - N/A   Clear
10:30 AM 60.8 °F - 46.4 °F 59% 30.39 in - NNW 9.2 mph - N/A   Clear
11:00 AM 60.8 °F - 46.4 °F 59% 30.39 in - North 5.8 mph - N/A   Clear
11:30 AM 62.6 °F - 46.4 °F 55% 30.36 in - North 8.1 mph - N/A   Clear
12:00 PM 63 °F - 47 °F 45% 30.36 in 16 mi North 6.9 mph - -   Haze
12:00 PM 62.6 °F - 46.4 °F 55% 30.36 in - North 6.9 mph - N/A   Clear
12:30 PM 64.4 °F - 46.4 °F 52% 30.33 in - NE 4.6 mph - N/A   Clear
1:00 PM 65 °F - 46 °F 39% 30.33 in - North 8.1 mph - -  
1:00 PM 64.4 °F - 46.4 °F 52% 30.30 in - North 8.1 mph - N/A   Clear
1:30 PM 66.2 °F - 46.4 °F 49% 30.30 in - North 9.2 mph - N/A   Clear
2:00 PM 66.2 °F - 46.4 °F 49% 30.27 in - NNE 5.8 mph - N/A   Clear
2:30 PM 66.2 °F - 46.4 °F 49% 30.27 in - NNE 9.2 mph - N/A   Clear
3:00 PM 67 °F - 47 °F 37% 30.29 in 19 mi NNE 10.4 mph - -   Partly Cloudy
3:00 PM 68.0 °F - 46.4 °F 46% 30.27 in - NNE 10.4 mph - N/A   Clear
3:30 PM 66.2 °F - 48.2 °F 52% 30.27 in - NNE 11.5 mph - N/A   Clear
4:00 PM 65 °F - 51 °F 49% 30.28 in - NE 13.8 mph - -  
4:00 PM 64.4 °F - 50.0 °F 59% 30.27 in - NE 13.8 mph - N/A   Clear
4:30 PM 64.4 °F - 51.8 °F 64% 30.27 in - NNE 15.0 mph - N/A   Clear
5:00 PM 64.4 °F - 51.8 °F 64% 30.27 in - NNE 13.8 mph - N/A   Clear
5:30 PM 64.4 °F - 51.8 °F 64% 30.24 in - NNE 16.1 mph - N/A   Clear
6:00 PM 64 °F - 50 °F 51% 30.28 in 19 mi NNE 15.0 mph - -   Partly Cloudy
6:00 PM 64.4 °F - 50.0 °F 59% 30.27 in - NNE 15.0 mph - N/A   Clear
6:30 PM 64.4 °F - 50.0 °F 59% 30.27 in - NNE 13.8 mph - N/A   Clear
7:00 PM 63 °F - 48 °F 47% 30.29 in - North 11.5 mph - -  
7:00 PM 62.6 °F - 48.2 °F 59% 30.27 in - North 11.5 mph - N/A   Clear
7:30 PM 62.6 °F - 44.6 °F 52% 30.27 in - NNE 15.0 mph - N/A   Clear
8:00 PM 62.6 °F - 42.8 °F 48% 30.27 in - NNE 17.3 mph - N/A   Clear
8:30 PM 62.6 °F - 44.6 °F 52% 30.27 in - NNE 15.0 mph - N/A   Clear
9:00 PM 63 °F - 47 °F 46% 30.28 in 19 mi NNE 12.7 mph - -   Partly Cloudy
9:00 PM 62.6 °F - 48.2 °F 59% 30.27 in - NNE 12.7 mph - N/A   Clear
9:30 PM 60.8 °F - 48.2 °F 63% 30.27 in - NNE 12.7 mph - N/A   Clear
10:00 PM 59 °F - 45 °F 50% 30.28 in - NNW 8.1 mph - -  
10:00 PM 59.0 °F - 44.6 °F 59% 30.27 in - NNW 8.1 mph - N/A   Clear
10:30 PM 59.0 °F - 46.4 °F 63% 30.27 in - NNW 8.1 mph - N/A   Clear
11:00 PM 57.2 °F - 46.4 °F 67% 30.24 in - NW 5.8 mph - N/A   Unknown
11:30 PM 57.2 °F - 46.4 °F 67% 30.24 in - NNW 6.9 mph - N/A   Clear